When you browse on this site, cookies collect data to enhance your experience and personalize the content and advertising you see.
Visit our Privacy Policy to learn more. By continuing to use the site, you agree to this use of cookies and data.
  • In Hungary
  • List of Countries
  • For 7 days
  • Water Temperature
  • Satellite Maps
  • Weather Map
  • News
  • Weather Widgets
  • user-avatar
    Login

    Hourly Weather Loanda

    Today, 23 January, Wednesday

    Time Temperature Precipitation Wind Pressure Humidity
    00:00 +27°C° 0 mm 1 mps 720 mmHg 70%
    01:00 +27°C° 0 mm 1 mps 720 mmHg 71%
    02:00 +27°C° 0 mm 1 mps 720 mmHg 73%
    03:00 +26°C° 0 mm 1 mps 720 mmHg 74%
    04:00 +26°C° 0 mm 1 mps 720 mmHg 75%
    05:00 +26°C° 0 mm 1 mps 720 mmHg 76%
    06:00 +27°C° 0 mm 1 mps 721 mmHg 74%
    07:00 +29°C° 0 mm 2 mps 721 mmHg 72%
    08:00 +30°C° 0 mm 2 mps 722 mmHg 70%
    09:00 +32°C° 0 mm 2 mps 722 mmHg 64%
    10:00 +33°C° 0 mm 1 mps 722 mmHg 59%
    11:00 +35°C° 0 mm 1 mps 722 mmHg 54%
    12:00 +35°C° 0 mm 1 mps 721 mmHg 51%
    13:00 +36°C° 0 mm 1 mps 721 mmHg 48%
    14:00 +36°C° 0 mm 1 mps 721 mmHg 46%
    15:00 +36°C° 0 mm 2 mps 720 mmHg 51%
    16:00 +35°C° 0 mm 2 mps 720 mmHg 57%
    17:00 +34°C° 0 mm 3 mps 719 mmHg 63%
    18:00 +33°C° 0 mm 3 mps 719 mmHg 65%
    19:00 +31°C° 0 mm 3 mps 719 mmHg 68%
    20:00 +29°C° 0 mm 3 mps 719 mmHg 71%
    21:00 +29°C° 0 mm 3 mps 720 mmHg 72%
    22:00 +28°C° 0 mm 3 mps 720 mmHg 72%
    23:00 +28°C° 0 mm 2 mps 720 mmHg 73%

    Tomorrow, 24 January, Thursday

    Time Temperature Precipitation Wind Pressure Humidity
    00:00 +27°C° 0 mm 2 mps 720 mmHg 75%
    01:00 +27°C° 0 mm 2 mps 719 mmHg 76%
    02:00 +27°C° 0 mm 2 mps 719 mmHg 78%
    03:00 +26°C° 0 mm 2 mps 719 mmHg 80%
    04:00 +26°C° 0 mm 2 mps 719 mmHg 81%
    05:00 +25°C° 0 mm 2 mps 719 mmHg 83%
    06:00 +26°C° 0 mm 3 mps 719 mmHg 81%
    07:00 +28°C° 0 mm 3 mps 720 mmHg 78%
    08:00 +29°C° 0 mm 3 mps 721 mmHg 76%
    09:00 +30°C° 0 mm 3 mps 721 mmHg 71%
    10:00 +33°C° 0 mm 3 mps 721 mmHg 65%
    11:00 +34°C° 0 mm 3 mps 721 mmHg 60%
    12:00 +35°C° 0 mm 3 mps 721 mmHg 58%
    13:00 +35°C° 0 mm 3 mps 720 mmHg 55%
    14:00 +36°C° 0 mm 3 mps 720 mmHg 53%
    15:00 +35°C° 0 mm 3 mps 719 mmHg 57%
    16:00 +35°C° 0 mm 2 mps 719 mmHg 60%
    17:00 +34°C° 0 mm 2 mps 718 mmHg 64%
    18:00 +32°C° 0 mm 2 mps 718 mmHg 66%
    19:00 +30°C° 0 mm 2 mps 718 mmHg 69%
    20:00 +29°C° 0 mm 3 mps 718 mmHg 71%
    21:00 +28°C° 0 mm 2 mps 719 mmHg 73%
    22:00 +28°C° 0 mm 2 mps 720 mmHg 76%
    23:00 +27°C° 0 mm 2 mps 720 mmHg 78%

    Day after tomorrow, 25 January, Friday

    Time Temperature Precipitation Wind Pressure Humidity
    00:00 +27°C° 0 mm 3 mps 720 mmHg 79%
    01:00 +26°C° 0 mm 3 mps 719 mmHg 80%
    02:00 +26°C° 0 mm 3 mps 719 mmHg 80%
    03:00 +26°C° 0 mm 4 mps 719 mmHg 80%
    04:00 +26°C° 0 mm 4 mps 719 mmHg 79%
    05:00 +25°C° 0 mm 5 mps 719 mmHg 78%
    06:00 +26°C° 0 mm 5 mps 719 mmHg 76%
    07:00 +26°C° 0 mm 5 mps 720 mmHg 74%
    08:00 +27°C° 0 mm 6 mps 720 mmHg 72%
    09:00 +28°C° 0 mm 5 mps 720 mmHg 69%
    10:00 +29°C° 0 mm 5 mps 721 mmHg 66%
    11:00 +32°C° 0 mm 5 mps 721 mmHg 63%
    12:00 +33°C° 0 mm 4 mps 720 mmHg 61%
    13:00 +33°C° 0 mm 3 mps 720 mmHg 58%
    14:00 +34°C° 0 mm 3 mps 719 mmHg 56%
    15:00 +34°C° 0.2 mm 3 mps 719 mmHg 60%
    16:00 +33°C° 0.2 mm 3 mps 718 mmHg 65%
    17:00 +31°C° 0.2 mm 3 mps 718 mmHg 69%
    18:00 +30°C° 0 mm 3 mps 718 mmHg 72%
    19:00 +29°C° 0 mm 3 mps 719 mmHg 76%
    20:00 +27°C° 0 mm 3 mps 719 mmHg 79%
    21:00 +27°C° 0 mm 3 mps 719 mmHg 79%
    22:00 +26°C° 0 mm 3 mps 719 mmHg 80%
    23:00 +26°C° 0 mm 3 mps 719 mmHg 81%

    26 January, Saturday

    Time Temperature Precipitation Wind Pressure Humidity
    00:00 +25°C° 0 mm 3 mps 719 mmHg 80%
    01:00 +25°C° 0 mm 4 mps 718 mmHg 79%
    02:00 +23°C° 0 mm 4 mps 718 mmHg 78%
    03:00 +23°C° 0 mm 4 mps 718 mmHg 79%
    04:00 +23°C° 0 mm 4 mps 718 mmHg 80%
    05:00 +22°C° 0 mm 4 mps 719 mmHg 81%
    06:00 +23°C° 0 mm 4 mps 719 mmHg 79%
    07:00 +25°C° 0 mm 4 mps 720 mmHg 78%
    08:00 +26°C° 0 mm 5 mps 721 mmHg 77%
    09:00 +28°C° 0 mm 5 mps 721 mmHg 73%
    10:00 +29°C° 0 mm 5 mps 721 mmHg 69%
    11:00 +32°C° 0 mm 5 mps 721 mmHg 65%
    12:00 +32°C° 0.1 mm 5 mps 720 mmHg 64%
    13:00 +33°C° 0.1 mm 4 mps 719 mmHg 62%
    14:00 +33°C° 0.1 mm 4 mps 719 mmHg 61%
    15:00 +33°C° 0.1 mm 4 mps 719 mmHg 63%
    16:00 +31°C° 0.1 mm 3 mps 718 mmHg 65%
    17:00 +31°C° 0.1 mm 3 mps 718 mmHg 67%
    18:00 +29°C° 0.1 mm 3 mps 719 mmHg 73%
    19:00 +27°C° 0.1 mm 3 mps 719 mmHg 78%
    20:00 +25°C° 0.1 mm 3 mps 719 mmHg 83%
    21:00 +25°C° 0 mm 4 mps 719 mmHg 83%
    22:00 +23°C° 0 mm 4 mps 720 mmHg 83%
    23:00 +23°C° 0 mm 4 mps 720 mmHg 83%

    27 January, Sunday

    Time Temperature Precipitation Wind Pressure Humidity
    00:00 +23°C° 0 mm 4 mps 719 mmHg 84%
    01:00 +22°C° 0 mm 4 mps 719 mmHg 84%
    02:00 +22°C° 0 mm 4 mps 719 mmHg 85%
    03:00 +22°C° 0 mm 4 mps 719 mmHg 86%
    04:00 +21°C° 0 mm 4 mps 719 mmHg 87%
    05:00 +21°C° 0 mm 4 mps 719 mmHg 88%
    06:00 +22°C° 0 mm 4 mps 720 mmHg 84%
    07:00 +25°C° 0 mm 5 mps 720 mmHg 80%
    08:00 +26°C° 0 mm 5 mps 721 mmHg 76%
    09:00 +27°C° 0.2 mm 5 mps 721 mmHg 71%
    10:00 +29°C° 0.2 mm 5 mps 721 mmHg 66%
    11:00 +30°C° 0.2 mm 5 mps 721 mmHg 61%
    12:00 +32°C° 0.2 mm 5 mps 721 mmHg 59%
    13:00 +32°C° 0.2 mm 5 mps 720 mmHg 58%
    14:00 +33°C° 0.2 mm 5 mps 720 mmHg 56%
    15:00 +32°C° 0.3 mm 5 mps 720 mmHg 60%
    16:00 +30°C° 0.3 mm 4 mps 719 mmHg 65%
    17:00 +29°C° 0.3 mm 4 mps 719 mmHg 69%
    18:00 +28°C° 0 mm 4 mps 720 mmHg 71%
    19:00 +27°C° 0 mm 4 mps 720 mmHg 73%
    20:00 +26°C° 0 mm 4 mps 720 mmHg 75%
    21:00 +25°C° 0 mm 4 mps 720 mmHg 76%
    22:00 +25°C° 0 mm 4 mps 721 mmHg 77%
    23:00 +23°C° 0 mm 4 mps 721 mmHg 78%

    28 January, Monday

    Time Temperature Precipitation Wind Pressure Humidity
    00:00 +23°C° 0 mm 4 mps 720 mmHg 80%
    01:00 +23°C° 0 mm 4 mps 720 mmHg 82%
    02:00 +22°C° 0 mm 4 mps 720 mmHg 83%
    03:00 +22°C° 0 mm 5 mps 720 mmHg 83%
    04:00 +22°C° 0 mm 5 mps 720 mmHg 83%
    05:00 +22°C° 0 mm 5 mps 721 mmHg 84%
    06:00 +23°C° 0 mm 5 mps 721 mmHg 80%
    07:00 +25°C° 0 mm 5 mps 722 mmHg 77%
    08:00 +26°C° 0 mm 6 mps 723 mmHg 74%
    09:00 +27°C° 0.6 mm 6 mps 723 mmHg 71%
    10:00 +28°C° 0.6 mm 6 mps 723 mmHg 68%
    11:00 +29°C° 0.6 mm 6 mps 723 mmHg 66%
    12:00 +29°C° 0.8 mm 6 mps 722 mmHg 66%
    13:00 +29°C° 0.8 mm 6 mps 722 mmHg 67%
    14:00 +29°C° 0.8 mm 6 mps 721 mmHg 68%
    15:00 +29°C° 0.4 mm 5 mps 721 mmHg 68%
    16:00 +29°C° 0.4 mm 4 mps 721 mmHg 69%
    17:00 +29°C° 0.4 mm 3 mps 721 mmHg 69%
    18:00 +28°C° 0.1 mm 3 mps 721 mmHg 73%
    19:00 +26°C° 0.1 mm 3 mps 722 mmHg 77%
    20:00 +25°C° 0.1 mm 2 mps 722 mmHg 80%
    21:00 +25°C° 0 mm 3 mps 722 mmHg 82%
    22:00 +24°C° 0 mm 3 mps 722 mmHg 83%
    23:00 +24°C° 0 mm 3 mps 722 mmHg 85%
    Show more